Weather reports worldwide

Advertisment
Besancon, France (7288): temperature & dewpoint: 19.01.2017 02:00:00 - 25.01.2017 02:00:00 (CET)Besancon, France (7288): temperature 5cm: 19.01.2017 02:00:00 - 25.01.2017 02:00:00 (CET)Besancon, France (7288): temperature -20cm & temperature -100cm: 19.01.2017 02:00:00 - 25.01.2017 02:00:00 (CET)Besancon, France (7288): wind speed & gusts: 19.01.2017 02:00:00 - 25.01.2017 02:00:00 (CET)Besancon, France (7288): wind direction: 19.01.2017 02:00:00 - 25.01.2017 02:00:00 (CET)Besancon, France (7288): reduced air pressure: 19.01.2017 02:00:00 - 25.01.2017 02:00:00 (CET)Besancon, France (7288): visibility: 19.01.2017 02:00:00 - 25.01.2017 02:00:00 (CET)Besancon, France (7288): sunshine duration: 19.01.2017 02:00:00 - 25.01.2017 02:00:00 (CET)Besancon, France (7288): precipitation: 19.01.2017 02:00:00 - 25.01.2017 02:00:00 (CET)
Date & Time tt [°C] td [°C] tt 5cm [°C] tt -20cm [°C] tt -100cm [°C] ff [km/h] ff [kn] fx [km/h] fx [kn] dd ppp [hPa] vv [km] sd [min] rr [mm]
25.01.2017 02:00:00 -4,4 -7,5 -4,5 1,2 5,2 7 4 19 11 NE 1027,5 - 0 0,0
25.01.2017 01:00:00 -4,4 -7,3 -4,4 1,2 5,2 8 5 27 15 NE 1027,6 - 0 0,0
25.01.2017 00:00:00 -4,2 -7,0 -4,3 1,2 5,2 8 4 30 16 NE 1028,0 - 0 0,0
24.01.2017 23:00:00 -4,1 -7,0 -4,3 1,2 5,2 9 5 30 16 NE 1027,8 - 0 0,0
24.01.2017 22:00:00 -4,2 -6,3 -4,3 1,2 5,2 6 3 23 13 NE 1028,3 - 0 0,0
24.01.2017 21:00:00 -4,3 -6,4 -4,4 1,2 5,2 6 3 16 9 NE 1028,6 - 0 0,0
24.01.2017 20:00:00 -4,4 -6,5 -4,5 1,2 5,2 6 3 17 9 NE 1028,6 - 0 0,0
24.01.2017 19:00:00 -4,6 -6,9 -4,8 1,2 5,2 8 4 19 11 NNE 1028,8 - 0 0,0
24.01.2017 18:00:00 -4,9 -7,0 -4,9 1,2 5,2 6 3 16 9 NE 1028,9 - 0 0,0
24.01.2017 17:00:00 -4,9 -6,9 -4,6 1,2 5,2 7 4 16 9 NNE 1028,9 2,0 0 0,0
24.01.2017 16:00:00 -4,4 -6,9 -3,6 1,2 5,2 4 2 16 9 ENE 1028,6 - 0 0,0
24.01.2017 15:00:00 -4,4 -6,5 -3,3 1,2 5,2 6 4 13 7 NNE 1028,3 2,0 0 0,0
24.01.2017 14:00:00 -4,7 -6,7 -3,1 1,2 5,2 7 4 14 8 N 1028,4 2,0 0 0,0
24.01.2017 13:00:00 -4,2 -6,7 -2,2 1,2 5,3 4 2 12 7 NE 1028,6 2,0 0 0,0
24.01.2017 12:00:00 -4,8 -6,6 -3,9 1,2 5,2 5 3 12 6 N 1029,0 2,0 0 0,0
24.01.2017 11:00:00 -5,3 -7,0 -5,4 1,2 5,3 4 2 16 8 N 1029,1 2,0 0 0,0
24.01.2017 10:00:00 -5,9 -7,3 -5,9 1,2 5,3 8 4 15 8 NNE 1028,6 2,0 0 0,0
24.01.2017 09:00:00 -6,3 -7,4 -6,3 1,2 5,3 8 4 16 9 NNE 1028,5 2,0 0 0,0
24.01.2017 08:00:00 -6,3 -7,4 -7,7 1,3 5,3 6 3 14 7 NE 1028,1 4,0 0 0,0
24.01.2017 07:00:00 -7,2 -8,0 -11,6 1,2 5,3 4 2 12 6 NE 1027,7 4,0 0 0,0
24.01.2017 06:00:00 -6,7 -7,9 -10,5 1,3 5,3 4 2 16 9 N 1027,2 6 0 0,0
24.01.2017 05:00:00 -7,0 -7,9 -11,2 1,3 5,3 4 2 12 6 NE 1027,0 - 0 0,0
24.01.2017 04:00:00 -6,9 -8,0 -10,1 1,3 5,3 5 3 10 5 NE 1026,9 - 0 0,0
24.01.2017 03:00:00 -7,0 -8,1 -10,1 1,3 5,3 4 2 10 6 NNE 1026,9 - 0 0,0
24.01.2017 02:00:00 -6,8 -8,0 -10,9 1,3 5,3 6 3 13 7 NNE 1027,0 - 0 0,0
24.01.2017 01:00:00 -7,6 -9,0 -10,6 1,3 5,3 3 2 16 9 NE 1027,1 - 0 0,0
24.01.2017 00:00:00 -6,9 -8,6 -9,9 1,3 5,3 8 4 22 12 NNE 1026,7 - 0 0,0
23.01.2017 23:00:00 -6,7 -8,4 -10,0 1,3 5,3 8 4 16 9 NNE 1026,4 - 0 0,0
23.01.2017 22:00:00 -6,7 -8,4 -10,8 1,3 5,4 4 2 11 6 NE 1026,1 - 0 0,0
23.01.2017 21:00:00 -5,8 -7,9 -10,0 1,3 5,3 4 2 10 6 N 1025,9 - 0 0,0
23.01.2017 20:00:00 -5,2 -7,5 -9,0 1,3 5,3 4 2 12 6 NE 1025,8 - 0 0,0
23.01.2017 19:00:00 -4,7 -7,5 -9,7 1,3 5,3 4 2 11 6 NNE 1025,7 - 0 0,0
23.01.2017 18:00:00 -3,4 -7,0 -8,5 1,3 5,3 4 2 13 7 NNE 1025,6 - 0 0,0
23.01.2017 17:00:00 -1,6 -6,5 -3,6 1,3 5,4 7 4 17 9 NNE 1025,1 8 32 0,0
23.01.2017 16:00:00 -0,2 -5,8 1,3 1,3 5,3 8 4 16 9 NNE 1024,8 8 60 0,0
23.01.2017 15:00:00 -0,3 -5,7 1,3 1,3 5,4 8 4 13 7 N 1024,5 8 60 0,0
23.01.2017 14:00:00 -1,1 -5,5 5,1 1,3 5,4 5 3 10 5 NNW 1024,7 8 60 0,0
23.01.2017 13:00:00 -1,9 -5,7 5,2 1,3 5,4 4 2 8 4 N 1025,3 8 60 0,0
23.01.2017 12:00:00 -2,5 -6,3 -0,7 1,3 5,4 0 0 5 3 N 1025,8 8 60 0,0
23.01.2017 11:00:00 -5,1 -6,9 -8,0 1,4 5,4 2 1 6 3 NE 1026,4 8 60 0,0
23.01.2017 10:00:00 -7,2 -8,6 -11,6 1,3 5,4 3 2 8 4 N 1026,6 8 16 0,0
23.01.2017 09:00:00 -9,2 -10,3 -13,3 1,4 5,4 2 1 9 5 NNE 1026,4 6 1 0,0
23.01.2017 08:00:00 -9,2 -10,1 -13,9 1,4 5,4 5 3 9 5 NNE 1026,3 6 0 0,0
23.01.2017 07:00:00 -9,3 -10,6 -13,8 1,4 5,4 0 0 5 3 N 1026,4 - 0 0,0
23.01.2017 06:00:00 -8,4 -9,3 -13,2 1,4 5,4 0 0 6 3 N 1026,1 10 0 0,0
23.01.2017 05:00:00 -8,4 -9,3 -13,6 1,4 5,4 0 0 6 4 N 1026,0 - 0 0,0
23.01.2017 04:00:00 -7,6 -8,4 -13,0 1,4 5,4 2 1 8 4 NNE 1026,2 - 0 0,0
23.01.2017 03:00:00 -7,0 -7,9 -12,3 1,4 5,4 0 0 7 4 N 1026,2 - 0 0,0
23.01.2017 02:00:00 -6,5 -7,7 -11,2 1,4 5,4 0 0 6 3 N 1026,1 - 0 0,0
23.01.2017 01:00:00 -6,0 -7,1 -10,8 1,4 5,4 3 2 6 3 NNE 1026,4 - 0 0,0
23.01.2017 00:00:00 -4,9 -6,0 -8,9 1,4 5,4 0 0 4 2 N 1026,6 - 0 0,0
22.01.2017 23:00:00 -4,7 -6,1 -8,7 1,4 5,4 0 0 6 3 N 1026,3 - 0 0,0
22.01.2017 22:00:00 -4,3 -5,8 -7,6 1,4 5,4 2 1 5 3 NE 1025,9 - 0 0,0
22.01.2017 21:00:00 -3,9 -5,9 -8,6 1,4 5,4 0 0 3 2 N 1025,8 - 0 0,0
22.01.2017 20:00:00 -3,3 -5,5 -8,1 1,4 5,5 0 0 5 3 N 1025,6 - 0 0,0
22.01.2017 19:00:00 -2,4 -5,4 -7,3 1,4 5,5 0 0 5 3 N 1025,3 - 0 0,0
22.01.2017 18:00:00 -1,1 -5,3 -6,4 1,4 5,5 2 1 7 4 SW 1024,4 - 0 0,0
22.01.2017 17:00:00 0,7 -5,1 -2,8 1,4 5,4 4 2 10 5 SW 1023,9 - 28 0,0
22.01.2017 16:00:00 2,4 -4,8 4,2 1,5 5,5 7 4 12 7 SW 1023,5 20 60 0,0
22.01.2017 15:00:00 2,6 -4,8 2,9 1,4 5,4 7 4 15 8 SSW 1023,3 20 60 0,0
22.01.2017 14:00:00 2,1 -5,1 6,2 1,4 5,5 9 5 15 8 SW 1023,3 20 60 0,0
22.01.2017 13:00:00 3,5 -5,4 10,6 1,5 5,5 3 2 10 6 E 1023,4 17 60 0,0
22.01.2017 12:00:00 1,4 -6,0 4,7 1,5 5,5 3 2 8 5 N 1023,8 15 60 0,0
22.01.2017 11:00:00 -0,8 -5,8 -5,9 1,5 5,5 2 1 8 5 E 1024,8 12 60 0,0
22.01.2017 10:00:00 -4,0 -5,7 -12,3 1,5 5,5 0 0 6 3 N 1025,2 10 19 0,0
22.01.2017 09:00:00 -7,8 -8,6 -13,6 1,5 5,5 4 2 7 4 NNE 1025,8 8 2 0,0
22.01.2017 08:00:00 -7,8 -8,9 -13,1 1,5 5,5 0 0 3 2 N 1025,6 8 0 0,0
22.01.2017 07:00:00 -7,3 -8,2 -12,7 1,5 5,5 0 0 7 4 N 1025,2 10 0 0,0
22.01.2017 06:00:00 -6,2 -7,6 -12,3 1,5 5,5 3 2 8 4 SSW 1025,6 10 0 0,0
22.01.2017 05:00:00 -5,5 -7,3 -11,7 1,5 5,5 0 0 4 2 N 1026,0 - 0 0,0
22.01.2017 04:00:00 -5,2 -7,2 -11,5 1,5 5,5 0 0 8 4 N 1026,0 - 0 0,0
22.01.2017 03:00:00 -5,0 -7,3 -10,7 1,5 5,5 3 1 13 7 NE 1026,4 - 0 0,0
22.01.2017 02:00:00 -4,6 -6,9 -10,7 1,5 5,5 2 1 5 3 ENE 1026,4 - 0 0,0
22.01.2017 01:00:00 -4,5 -6,5 -10,3 1,5 5,5 0 0 9 5 N 1026,8 - 0 0,0
22.01.2017 00:00:00 -3,8 -6,3 -10,0 1,5 5,5 2 1 6 4 E 1027,2 - 0 0,0
21.01.2017 23:00:00 -3,6 -6,1 -9,7 1,6 5,5 2 1 8 5 NE 1027,1 - 0 0,0
21.01.2017 22:00:00 -3,6 -6,4 -9,2 1,6 5,5 4 2 9 5 NNE 1027,3 - 0 0,0
21.01.2017 21:00:00 -3,1 -5,6 -9,4 1,6 5,5 0 0 8 4 N 1027,2 - 0 0,0
21.01.2017 20:00:00 -3,0 -5,8 -9,0 1,6 5,5 0 0 8 4 N 1027,3 - 0 0,0
21.01.2017 19:00:00 -2,3 -6,0 -7,8 1,6 5,6 3 2 7 4 NNE 1027,0 - 0 0,0
21.01.2017 18:00:00 -0,8 -5,4 -6,8 1,6 5,5 2 1 7 4 NE 1026,9 - 5 0,0
21.01.2017 17:00:00 1,2 -5,3 -4,7 1,6 5,6 4 2 9 5 NNE 1026,7 - 60 0,0
21.01.2017 16:00:00 4,1 -4,6 6,0 1,6 5,5 0 0 4 2 N 1026,4 14 60 0,0
21.01.2017 15:00:00 3,0 -4,9 4,0 1,6 5,6 2 1 8 4 NW 1026,7 14 60 0,0
21.01.2017 14:00:00 1,3 -5,4 8,1 1,6 5,6 4 2 6 4 NNE 1027,5 14 60 0,0
21.01.2017 13:00:00 1,1 -5,2 8,5 1,6 5,6 0 0 6 3 N 1028,1 14 60 0,0
21.01.2017 12:00:00 0,6 -5,9 -1,3 1,6 5,6 0 0 5 3 N 1028,7 12 60 0,0
21.01.2017 11:00:00 -3,8 -6,0 -9,2 1,7 5,6 2 1 4 2 N 1029,9 10 60 0,0
21.01.2017 10:00:00 -6,4 -7,9 -13,0 1,7 5,6 2 1 5 3 NNE 1030,5 10 20 0,0
21.01.2017 09:00:00 -9,3 -10,5 -13,8 1,7 5,6 3 1 5 3 NNE 1030,6 7 8 0,0
21.01.2017 08:00:00 -9,3 -10,4 -14,0 1,7 5,6 0 0 5 3 N 1030,5 7 0 0,0
21.01.2017 07:00:00 -8,8 -9,9 -13,6 1,7 5,6 3 2 6 3 NNE 1030,4 7 0 0,0
21.01.2017 06:00:00 -8,4 -9,5 -13,4 1,7 5,6 0 0 4 2 N 1030,6 7 0 0,0
21.01.2017 05:00:00 -8,2 -9,3 -13,1 1,7 5,6 0 0 6 3 N 1030,7 - 0 0,0
21.01.2017 04:00:00 -7,7 -8,8 -13,1 1,8 5,6 0 0 6 4 N 1030,9 - 0 0,0
21.01.2017 03:00:00 -7,1 -8,3 -12,7 1,7 5,6 0 0 5 3 N 1030,9 - 0 0,0
21.01.2017 02:00:00 -6,9 -8,1 -12,5 1,7 5,6 0 0 4 2 N 1030,7 - 0 0,0
21.01.2017 01:00:00 -6,2 -7,7 -12,1 1,7 5,6 0 0 9 5 N 1030,7 - 0 0,0
21.01.2017 00:00:00 -6,0 -7,8 -11,3 1,7 5,6 0 0 7 4 N 1030,4 - 0 0,0
20.01.2017 23:00:00 -5,7 -7,7 -11,2 1,7 5,6 0 0 8 4 N 1030,4 - 0 0,0
20.01.2017 22:00:00 -5,5 -7,3 -11,2 1,8 5,6 0 0 5 3 N 1030,6 - 0 0,0
20.01.2017 21:00:00 -4,9 -7,2 -10,1 1,8 5,6 0 0 6 4 N 1030,6 - 0 0,0
20.01.2017 20:00:00 -4,5 -7,1 -10,4 1,8 5,6 0 0 7 4 N 1030,6 - 0 0,0
20.01.2017 19:00:00 -3,7 -6,8 -9,7 1,8 5,6 0 0 6 4 N 1030,6 - 0 0,0
20.01.2017 18:00:00 -2,5 -6,3 -8,5 1,8 5,6 2 1 4 2 NNE 1030,4 - 1 0,0
20.01.2017 17:00:00 -0,3 -6,1 -5,0 1,8 5,7 0 0 7 4 N 1030,2 10 60 0,0
20.01.2017 16:00:00 1,4 -6,2 4,1 1,8 5,6 4 2 7 4 N 1029,8 - 60 0,0
20.01.2017 15:00:00 1,7 -6,2 3,4 1,8 5,6 3 2 6 3 N 1030,0 10 60 0,0
20.01.2017 14:00:00 0,9 -6,9 7,4 1,8 5,7 3 2 9 5 NE 1030,2 10 60 0,0
20.01.2017 13:00:00 0,1 -7,0 6,4 1,8 5,6 2 1 10 5 E 1030,7 10 60 0,0
20.01.2017 12:00:00 -1,8 -6,9 1,6 1,9 5,7 0 0 6 4 N 1031,7 - 60 0,0
20.01.2017 11:00:00 -3,9 -7,7 -7,8 1,9 5,7 3 1 5 3 ESE 1032,4 10 60 0,0
20.01.2017 10:00:00 -6,0 -8,4 -12,1 1,9 5,7 0 0 5 3 N 1032,3 10 16 0,0
20.01.2017 09:00:00 -8,2 -9,4 -13,5 1,9 5,7 2 1 7 4 ENE 1032,3 10 2 0,0
20.01.2017 08:00:00 -8,4 -9,5 -13,4 1,9 5,7 0 0 4 2 N 1032,4 10 0 0,0
20.01.2017 07:00:00 -7,7 -9,1 -12,6 1,9 5,7 0 0 7 4 N 1032,3 10 0 0,0
20.01.2017 06:00:00 -8,1 -9,3 -13,3 1,9 5,7 2 1 6 3 ENE 1032,3 10 0 0,0
20.01.2017 05:00:00 -8,1 -9,3 -13,2 2,0 5,7 2 1 7 4 E 1032,1 - 0 0,0
20.01.2017 04:00:00 -7,9 -9,3 -13,2 1,9 5,7 0 0 7 4 N 1032,1 - 0 0,0
20.01.2017 03:00:00 -7,5 -9,0 -12,7 1,9 5,7 0 0 5 3 N 1032,0 - 0 0,0
20.01.2017 02:00:00 -7,1 -8,8 -12,4 2,0 5,7 0 0 6 3 N 1031,8 - 0 0,0
20.01.2017 01:00:00 -6,5 -8,6 -11,8 2,0 5,7 0 0 8 4 N 1031,9 - 0 0,0
20.01.2017 00:00:00 -5,9 -8,2 -10,1 2,0 5,7 4 2 13 7 ENE 1031,8 - 0 0,0
19.01.2017 23:00:00 -5,8 -8,1 -9,6 2,0 5,7 4 2 19 10 ENE 1031,7 - 0 0,0
19.01.2017 22:00:00 -5,8 -8,1 -9,5 2,0 5,7 4 2 14 8 NE 1031,5 - 0 0,0
19.01.2017 21:00:00 -5,7 -8,3 -9,1 2,0 5,7 5 3 14 8 NE 1031,6 - 0 0,0
19.01.2017 20:00:00 -5,2 -8,1 -8,8 2,0 5,7 6 3 17 9 NE 1031,7 - 0 0,0
19.01.2017 19:00:00 -4,4 -7,8 -7,0 2,0 5,7 8 4 19 10 NE 1031,6 - 0 0,0
19.01.2017 18:00:00 -3,7 -7,7 -6,4 2,0 5,7 7 4 18 10 NE 1031,6 - 0 0,0
19.01.2017 17:00:00 -2,6 -7,1 -4,0 2,0 5,7 8 4 22 12 NNE 1031,3 10 53 0,0
19.01.2017 16:00:00 -1,2 -6,7 0,7 2,0 5,7 6 3 22 12 NE 1031,1 10 60 0,0
19.01.2017 15:00:00 -0,9 -6,9 -0,2 2,0 5,7 8 4 23 13 NE 1030,9 10 60 0,0
19.01.2017 14:00:00 -1,1 -6,9 3,0 2,1 5,7 9 5 20 11 NNE 1030,8 10 60 0,0
19.01.2017 13:00:00 -1,7 -7,0 3,4 2,1 5,7 9 5 18 10 NNE 1031,2 10 60 0,0
19.01.2017 12:00:00 -2,2 -7,3 1,6 2,1 5,7 6 4 19 10 NE 1031,6 10 60 0,0
19.01.2017 11:00:00 -3,0 -7,5 -4,5 2,1 5,7 7 4 19 11 NE 1031,7 10 60 0,0
19.01.2017 10:00:00 -4,4 -8,0 -7,9 2,1 5,7 5 3 19 10 NE 1031,3 9 16 0,0
19.01.2017 09:00:00 -6,2 -8,5 -9,8 2,1 5,7 6 3 20 11 NE 1031,3 9 0 0,0
19.01.2017 08:00:00 -6,5 -8,8 -10,0 2,1 5,7 5 3 18 10 NE 1031,0 8 0 0,0
19.01.2017 07:00:00 -6,4 -8,8 -10,6 2,2 5,7 5 3 19 11 NE 1030,7 9 0 0,0
19.01.2017 06:00:00 -5,9 -8,6 -9,0 2,2 5,7 6 3 15 8 NE 1030,3 9 0 0,0
19.01.2017 05:00:00 -5,8 -8,7 -9,0 2,2 5,8 6 3 19 11 NE 1030,5 - 0 0,0
19.01.2017 04:00:00 -5,5 -8,6 -8,7 2,2 5,7 6 3 19 11 NE 1030,7 - 0 0,0
19.01.2017 03:00:00 -5,3 -8,7 -7,9 2,3 5,8 7 4 16 9 NE 1030,4 - 0 0,0
19.01.2017 02:00:00 -4,8 -8,6 -7,6 2,3 5,8 9 5 19 10 NNE 1030,0 - 0 0,0

tt = temperature
td = dewpoint
tt 5cm = temperature 5cm
tt -20cm = temperature -20cm
tt -100cm = temperature -100cm
ff = wind speed
fx = gusts
dd = wind direction
ppp = reduced air pressure
vv = visibility
sd = sunshine duration
rr = precipitation

Next stations